Weather History for MMVR - March, 2013

Change the Weather History Date:

Thursday, March 21, 2013

  Actual Average Record
Temperature  
Mean Temperature 76 °F -  
Max Temperature 82 °F 86 °F 93 °F (2005)
Min Temperature 71 °F 69 °F 60 °F (1997)
Cooling Degree Days 12    
Growing Degree Days 26 (Base 50)    
Moisture  
Dew Point 69 °F    
Average Humidity 78    
Maximum Humidity 94    
Minimum Humidity 65    
Precipitation  
Precipitation 0.00 in - - ()
Sea Level Pressure  
Sea Level Pressure 29.80 in    
Wind  
Wind Speed 6 mph ()    
Max Wind Speed 12 mph    
Max Gust Speed -    
Visibility 6.2 miles    
Events      
Averages and records for this station are not official NWS values.
T = Trace of Precipitation, MM = Missing Value Source: Averaged Metar Reports

Daily Weather History Graph

Daily Weather History Graph

Search for Another Location

Airport or City:

Trip Planner

Search our weather history database for the weather conditions in past years. The results will help you decide how hot, cold, wet, or windy it might be!

Date:

Astronomy

Mar. 21, 2013 Rise Set
Actual Time 6:27 AM CST 6:36 PM CST
Civil Twilight 6:05 AM CST 6:57 PM CST
Nautical Twilight 5:40 AM CST 7:23 PM CST
Astronomical Twilight 5:14 AM CST 7:48 PM CST
Moon 1:44 PM CST (3/21) 2:10 AM CST (3/21)
Length of Visible Light 12h 52m
Length of Day
12h 08m
Waxing Gibbous, 69% of the Moon is Illuminated
Mar 21
Waxing Gibbous
Mar 27
Full
Apr 2
Last Quarter
Apr 10
New
Apr 18
First Quarter

Hourly Weather History & Observations

Time (CST) Temp. Heat Index Dew Point Humidity Pressure Visibility Wind Dir Wind Speed Gust Speed Precip Events Conditions
5:05 AM 73.4 °F - 69.8 °F 88% 29.92 in 7.0 mi NNW 5.8 mph - N/A   Overcast
5:51 AM 73.4 °F - 68.0 °F 83% 29.89 in 5.0 mi NNE 6.9 mph - N/A   Overcast
6:52 AM 73.4 °F - 69.8 °F 88% 29.93 in 7.0 mi NNE 8.1 mph - N/A   Mostly Cloudy
7:42 AM 75.2 °F - 69.8 °F 83% 29.94 in 5.0 mi NE 5.8 mph - N/A   Scattered Clouds
8:43 AM 77.0 °F - 68.0 °F 74% 29.92 in 6.0 mi ESE 5.8 mph - N/A   Mostly Cloudy
9:43 AM 80.6 °F 83.2 °F 68.0 °F 65% 29.92 in 6.0 mi ESE 2.3 mph - N/A   Scattered Clouds
10:43 AM 80.6 °F 83.2 °F 68.0 °F 65% 29.89 in 6.0 mi ESE 6.9 mph - N/A   Mostly Cloudy
11:49 AM 80.6 °F 83.2 °F 68.0 °F 65% 29.85 in 6.0 mi ESE 6.9 mph - N/A   Mostly Cloudy
12:43 PM 78.8 °F - 69.8 °F 74% 29.82 in 6.0 mi ESE 6.9 mph - N/A   Overcast
1:42 PM 82.4 °F 86.3 °F 69.8 °F 66% 29.78 in 6.0 mi ESE 5.8 mph - N/A   Overcast
2:42 PM 80.6 °F 83.9 °F 69.8 °F 70% 29.73 in 6.0 mi ENE 10.4 mph - N/A   Mostly Cloudy
3:43 PM 78.8 °F - 68.0 °F 69% 29.72 in 6.0 mi East 10.4 mph - N/A   Overcast
4:42 PM 78.8 °F - 68.0 °F 69% 29.71 in 6.0 mi East 11.5 mph - N/A   Overcast
5:45 PM 78.8 °F - 68.0 °F 69% 29.69 in 6.0 mi ESE 5.8 mph - N/A   Mostly Cloudy
6:42 PM 77.0 °F - 69.8 °F 78% 29.72 in 6.0 mi East 5.8 mph - N/A   Overcast
7:43 PM 75.2 °F - 69.8 °F 83% 29.74 in 6.0 mi ESE 5.8 mph - N/A   Mostly Cloudy
8:43 PM 75.2 °F - 71.6 °F 89% 29.72 in 7.0 mi ESE 4.6 mph - N/A   Clear
9:42 PM 75.2 °F - 71.6 °F 89% 29.77 in 7.0 mi SE 3.5 mph - N/A   Clear
10:43 PM 71.6 °F - 69.8 °F 94% 29.77 in 7.0 mi West 3.5 mph - N/A   Mostly Cloudy
11:46 PM 71.6 °F - 69.8 °F 94% 29.47 in 7.0 mi West 3.5 mph - N/A   Mostly Cloudy